Location: ???????
(38.3360°N, 23.6977°E)
Time: 23:29:06
(UTC+00:00)

Okean 2 Rocket - Pass Details

Date: 17 November 2025
Orbit: 611 x 635 km, 82.5° (Epoch: 09 December)

Event Time Altitude Azimuth Distance (km) Brightness Sun altitude
Rises 16:49:34 0° 188° (S) 2,888 6.7 -19.3°
Reaches altitude 10° 16:51:48 10° 189° (S) 1,982 5.9 -19.7°
Maximum altitude 16:56:11 81° 277° (W) 631 3.1 -20.6°
Enters shadow 17:00:31 10° 5° (N) 1,959 5.5 -21.4°
